Tony, WI

3:52 AM CST on December 03, 2016 (GMT -0600)
Rusk County

Weather History for KRCX - March, 2013

Change the Weather History Date:

Saturday, March 16, 2013

  Actual Average (KPBH) Record (KPBH)
Temperature  
Mean Temperature 20 °F -  
Max Temperature 26 °F 34 °F 75 °F (2012)
Min Temperature 14 °F 15 °F -16 °F (1997)
Degree Days  
Heating Degree Days 45    
Moisture  
Dew Point 11 °F    
Average Humidity 67    
Maximum Humidity 93    
Minimum Humidity 50    
Precipitation  
Precipitation 0.00 in - - ()
Sea Level Pressure  
Sea Level Pressure 30.02 in    
Wind  
Wind Speed 9 mph (NNW)    
Max Wind Speed 15 mph    
Max Gust Speed 17 mph    
Visibility 8 miles    
Events Snow    
Averages and records for this station are not official NWS values.
T = Trace of Precipitation, MM = Missing Value Source: NWS Daily Summary

Daily Weather History Graph

Daily Weather History Graph

Search for Another Location

Airport or City:

Trip Planner

Search our weather history database for the weather conditions in past years. The results will help you decide how hot, cold, wet, or windy it might be!

Date:

Astronomy

Mar. 16, 2013 Rise Set
Actual Time 7:14 AM CDT 7:11 PM CDT
Civil Twilight 6:44 AM CDT 7:41 PM CDT
Nautical Twilight 6:10 AM CDT 8:15 PM CDT
Astronomical Twilight 5:35 AM CDT 8:51 PM CDT
Moon 9:29 AM CDT (3/16) No Moon Set
Length of Visible Light 12h 56m
Length of Day
11h 57m
Waxing Crescent, 23% of the Moon is Illuminated
Mar 16
Waxing Crescent
Mar 19
First Quarter
Mar 27
Full
Apr 2
Last Quarter
Apr 10
New

Hourly Weather History & Observations

Time (CDT) Temp. Windchill Dew Point Humidity Pressure Visibility Wind Dir Wind Speed Gust Speed Precip Events Conditions
12:15 AM 21.2 °F 8.9 °F 19.4 °F 93% 29.89 in 3.0 mi NNE 12.7 mph - N/A Snow Light Snow
12:35 AM 21.2 °F 10.9 °F 19.4 °F 93% 29.89 in 4.0 mi NE 9.2 mph - N/A Snow Light Snow
1:15 AM 21.2 °F 10.1 °F 17.6 °F 86% 29.90 in 4.0 mi NNE 10.4 mph - N/A Snow Light Snow
1:35 AM 19.4 °F 8.6 °F 17.6 °F 93% 29.90 in 4.0 mi NNE 9.2 mph - N/A Snow Light Snow
1:55 AM 19.4 °F 7.9 °F 15.8 °F 86% 29.90 in 2.0 mi NNE 10.4 mph - N/A Snow Light Snow
2:15 AM 19.4 °F 7.9 °F 15.8 °F 86% 29.91 in 2.0 mi NNE 10.4 mph - N/A Snow Light Snow
2:35 AM 19.4 °F 7.2 °F 15.8 °F 86% 29.92 in 2.5 mi NNE 11.5 mph - N/A Snow Light Snow
3:15 AM 17.6 °F 5.7 °F 14.0 °F 86% 29.92 in 5.0 mi NE 10.4 mph - N/A Snow Light Snow
3:35 AM 17.6 °F 6.4 °F 14.0 °F 86% 29.92 in 7.0 mi NE 9.2 mph 16.1 mph N/A Snow Light Snow
3:55 AM 17.6 °F 6.4 °F 14.0 °F 86% 29.92 in 3.0 mi NNE 9.2 mph 17.3 mph N/A Snow Light Snow
4:35 AM 17.6 °F 5.0 °F 12.2 °F 79% 29.93 in 5.0 mi NNE 11.5 mph - N/A Snow Light Snow
5:15 AM 15.8 °F 3.4 °F 12.2 °F 86% 29.95 in 3.0 mi NNE 10.4 mph - N/A Snow Light Snow
5:55 AM 15.8 °F 4.2 °F 12.2 °F 86% 29.96 in 3.0 mi NNE 9.2 mph - N/A Snow Light Snow
6:15 AM 15.8 °F 5.1 °F 12.2 °F 86% 29.97 in 4.0 mi NNE 8.1 mph - N/A Snow Light Snow
6:35 AM 15.8 °F 6.1 °F 12.2 °F 86% 29.98 in 4.0 mi North 6.9 mph - N/A Snow Light Snow
7:15 AM 14.0 °F 5.1 °F 10.4 °F 86% 30.00 in 7.0 mi North 5.8 mph - N/A Snow Light Snow
7:35 AM 14.0 °F 5.1 °F 10.4 °F 86% 30.01 in 5.0 mi North 5.8 mph - N/A Snow Light Snow
8:15 AM 14.0 °F 5.1 °F 10.4 °F 86% 30.03 in 10.0 mi North 5.8 mph - N/A Snow Light Snow
8:35 AM 14.0 °F 2.9 °F 8.6 °F 79% 30.04 in 10.0 mi North 8.1 mph - N/A   Overcast
8:55 AM 14.0 °F 2.0 °F 8.6 °F 79% 30.03 in 10.0 mi North 9.2 mph - N/A Snow Light Snow
9:15 AM 14.0 °F 2.9 °F 8.6 °F 79% 30.04 in 10.0 mi North 8.1 mph - N/A   Clear
9:35 AM 15.8 °F 6.1 °F 8.6 °F 73% 30.04 in 10.0 mi North 6.9 mph - N/A   Clear
9:55 AM 17.6 °F 7.3 °F 8.6 °F 68% 30.05 in 10.0 mi NNE 8.1 mph - N/A   Clear
10:15 AM 17.6 °F 8.2 °F 8.6 °F 68% 30.05 in 10.0 mi North 6.9 mph - N/A   Clear
10:35 AM 17.6 °F 9.3 °F 10.4 °F 73% 30.05 in 10.0 mi NW 5.8 mph - N/A   Scattered Clouds
10:55 AM 19.4 °F 12.8 °F 10.4 °F 68% 30.05 in 10.0 mi NNW 4.6 mph - N/A   Scattered Clouds
11:15 AM 19.4 °F 12.8 °F 8.6 °F 63% 30.05 in 10.0 mi NW 4.6 mph - N/A   Scattered Clouds
11:35 AM 19.4 °F 12.8 °F 8.6 °F 63% 30.05 in 10.0 mi NNW 4.6 mph - N/A   Scattered Clouds
11:55 AM 21.2 °F - 8.6 °F 58% 30.05 in 10.0 mi Calm Calm - N/A   Scattered Clouds
12:15 PM 23.0 °F 13.9 °F 8.6 °F 54% 30.05 in 10.0 mi NNW 8.1 mph - N/A   Scattered Clouds
12:35 PM 23.0 °F - 8.6 °F 54% 30.05 in 10.0 mi Calm Calm - N/A   Mostly Cloudy
12:55 PM 24.8 °F 16.1 °F 8.6 °F 50% 30.04 in 10.0 mi WNW 8.1 mph - N/A   Mostly Cloudy
1:15 PM 23.0 °F 14.7 °F 10.4 °F 59% 30.05 in 10.0 mi WNW 6.9 mph - N/A   Mostly Cloudy
1:35 PM 26.6 °F 19.1 °F 10.4 °F 51% 30.04 in 10.0 mi WNW 6.9 mph - N/A   Mostly Cloudy
1:55 PM 24.8 °F 19.1 °F 10.4 °F 54% 30.04 in 10.0 mi WNW 4.6 mph - N/A   Mostly Cloudy
2:15 PM 26.6 °F 19.1 °F 10.4 °F 51% 30.04 in 10.0 mi WNW 6.9 mph - N/A   Mostly Cloudy
2:35 PM 26.6 °F 17.5 °F 10.4 °F 51% 30.04 in 10.0 mi WNW 9.2 mph - N/A   Overcast
2:55 PM 26.6 °F 15.2 °F 12.2 °F 55% 30.03 in 10.0 mi West 13.8 mph - N/A   Mostly Cloudy
3:15 PM 26.6 °F 16.2 °F 12.2 °F 55% 30.03 in 10.0 mi West 11.5 mph - N/A   Scattered Clouds
3:35 PM 26.6 °F 16.8 °F 12.2 °F 55% 30.03 in 7.0 mi WNW 10.4 mph - N/A   Mostly Cloudy
3:55 PM 26.6 °F 15.2 °F 12.2 °F 55% 30.03 in 10.0 mi WNW 13.8 mph 17.3 mph N/A   Mostly Cloudy
4:15 PM 26.6 °F 17.5 °F 12.2 °F 55% 30.03 in 10.0 mi NW 9.2 mph - N/A   Mostly Cloudy
4:35 PM 26.6 °F 14.7 °F 12.2 °F 55% 30.03 in 10.0 mi WNW 15.0 mph - N/A   Mostly Cloudy
5:15 PM 26.6 °F 15.7 °F 12.2 °F 55% 30.02 in 10.0 mi WNW 12.7 mph - N/A   Scattered Clouds
5:35 PM 26.6 °F 16.2 °F 10.4 °F 51% 30.01 in 10.0 mi NW 11.5 mph - N/A   Scattered Clouds
5:55 PM 26.6 °F 17.5 °F 10.4 °F 51% 30.01 in 10.0 mi WNW 9.2 mph - N/A   Clear
6:15 PM 24.8 °F 14.6 °F 10.4 °F 54% 30.01 in 10.0 mi WNW 10.4 mph - N/A   Clear
6:35 PM 24.8 °F 15.3 °F 10.4 °F 54% 30.01 in 10.0 mi WNW 9.2 mph - N/A   Scattered Clouds
6:55 PM 23.0 °F 12.4 °F 10.4 °F 59% 30.01 in 10.0 mi WNW 10.4 mph - N/A   Scattered Clouds
7:15 PM 23.0 °F 13.1 °F 8.6 °F 54% 30.02 in 10.0 mi WNW 9.2 mph - N/A   Clear
7:35 PM 23.0 °F 14.7 °F 8.6 °F 54% 30.03 in 10.0 mi WNW 6.9 mph - N/A   Clear
8:15 PM 19.4 °F 10.4 °F 8.6 °F 63% 30.07 in 10.0 mi WNW 6.9 mph - N/A   Clear
8:35 PM 19.4 °F 7.9 °F 8.6 °F 63% 30.09 in 10.0 mi NNW 10.4 mph - N/A   Clear
9:15 PM 19.4 °F 7.9 °F 6.8 °F 58% 30.11 in 10.0 mi NW 10.4 mph 16.1 mph N/A   Clear
9:35 PM 19.4 °F 7.9 °F 5.0 °F 54% 30.12 in 10.0 mi NW 10.4 mph 17.3 mph N/A   Clear
9:55 PM 19.4 °F 8.6 °F 5.0 °F 54% 30.12 in 10.0 mi NW 9.2 mph - N/A   Clear
10:15 PM 17.6 °F 6.4 °F 5.0 °F 58% 30.13 in 10.0 mi NW 9.2 mph - N/A   Clear
10:35 PM 17.6 °F 8.2 °F 5.0 °F 58% 30.13 in 10.0 mi NW 6.9 mph - N/A   Clear
10:55 PM 15.8 °F 4.2 °F 5.0 °F 62% 30.14 in 10.0 mi NNW 9.2 mph - N/A   Clear
11:15 PM 15.8 °F 4.2 °F 5.0 °F 62% 30.14 in 10.0 mi NNW 9.2 mph - N/A   Clear
11:35 PM 15.8 °F 3.4 °F 3.2 °F 58% 30.15 in 10.0 mi North 10.4 mph - N/A   Clear